This demonstration page uses our WeatherBlox Daily Observations layout. Learn more.

Left ArrowRight Arrow

31.84235, -102.49876

Hourly Observations for March 2, 2017

Temp ( °F °C ) Dew Point ( °F °C ) Humidity (%) Winds ( mph kmh ) Pressure ( in mb ) Visibility ( mi km ) Precip ( " mm )
12:53 am 00:53 Clear 43 6.1 16 -8.9 34 34 ESE 8 13 30.26 1025 10 16 0.00 0.00
1:53 am 01:53 Clear 43 6.1 16 -8.9 34 34 ESE 9 15 30.27 1025 10 16 0.00 0.00
2:53 am 02:53 Clear 42 5.6 16 -8.9 35 35 SE 10 17 30.25 1025 10 16 0.00 0.00
3:53 am 03:53 Clear 39 3.9 17 -8.3 41 41 SE 6 9 30.26 1025 10 16 0.00 0.00
4:53 am 04:53 Clear 39 3.9 17 -8.3 41 41 SE 8 13 30.26 1025 10 16 0.00 0.00
5:53 am 05:53 Clear 39 3.9 17 -8.3 41 41 SE 6 9 30.28 1025 10 16 0.00 0.00
6:53 am 06:53 Clear 37 2.8 17 -8.3 44 44 SSE 7 11 30.31 1027 10 16 0.00 0.00
7:53 am 07:53 Sunny 41 5 17 -8.3 38 38 SE 7 11 30.34 1027 10 16 0.00 0.00
8:53 am 08:53 Sunny 45 7.2 15 -9.4 30 30 SE 8 13 30.37 1028 10 16 0.00 0.00
9:04 am 09:04 Mostly Sunny 46 7.8 15 -9.4 29 29 SSE 9 15 30.42 1030 10 16 0.00 0.00
9:53 am 09:53 Sunny 50 10 15 -9.4 25 25 SSE 14 22 30.38 1029 10 16 0.00 0.00
10:53 am 10:53 Sunny 54 12.2 15 -9.4 21 21 SSE 17 28 30.38 1029 10 16 0.00 0.00
11:53 am 11:53 Sunny 56 13.3 15 -9.4 20 20 SSE 13 20 30.38 1029 10 16 0.00 0.00
12:53 pm 12:53 Sunny 59 15 16 -8.9 18 18 ESE 12 19 30.36 1028 10 16 0.00 0.00
1:53 pm 13:53 Sunny 61 16.1 17 -8.3 18 18 SE 10 17 30.33 1027 10 16 0.00 0.00
2:53 pm 14:53 Sunny 63 17.2 17 -8.3 17 17 ESE 10 17 30.30 1026 10 16 0.00 0.00
3:53 pm 15:53 Sunny 63 17.2 17 -8.3 17 17 ESE 9 15 30.29 1026 10 16 0.00 0.00
4:53 pm 16:53 Sunny 63 17.2 17 -8.3 17 17 ESE 7 11 30.29 1026 10 16 0.00 0.00
5:53 pm 17:53 Sunny 62 16.7 16 -8.9 17 17 ESE 8 13 30.30 1026 10 16 0.00 0.00
6:53 pm 18:53 Clear 57 13.9 17 -8.3 21 21 E 8 13 30.32 1027 10 16 0.00 0.00
7:53 pm 19:53 Clear 54 12.2 18 -7.8 24 24 E 9 15 30.34 1027 10 16 0.00 0.00
8:53 pm 20:53 Clear 52 11.1 18 -7.8 26 26 E 12 19 30.36 1028 10 16 0.00 0.00
9:53 pm 21:53 Clear 51 10.6 17 -8.3 26 26 ESE 13 20 30.37 1029 10 16 0.00 0.00
10:53 pm 22:53 Clear 49 9.4 16 -8.9 27 27 ESE 12 19 30.38 1029 10 16 0.00 0.00
11:53 pm 23:53 Clear 47 8.3 16 -8.9 29 29 ESE 12 19 30.38 1029 10 16 0.00 0.00

Powered by AerisWeather